Location: Bernay
(48.6766°N, 2.9386°E)
Time: 01:28:34
(UTC+00:00)

SJ 16-02 - Pass Details

Date: 24 April 2026
Orbit: 582 x 592 km, 75.0° (Epoch: 19 May)

Event Time Altitude Azimuth Distance (km) Brightness Sun altitude
Rises 20:11:06 0° 350° (N) 2,824 5.5 -12.1°
Reaches altitude 10° 20:14:07 10° 13° (NNE) 1,917 4.2 -12.5°
Maximum altitude 20:16:45 16° 51° (NE) 1,568 3.3 -12.9°
Enters shadow 20:18:55 12° 84° (E) 1,803 3.3 -13.1°
